[[{"header":{"parameterUnit":"m.s-1","parameterCategory":1,"la1":30.2991,"la2":30.254,"lo1":-89.0895,"lo2":-89.0444,"dx":0.0017,"dy":0.0017,"nx":28,"ny":28,"refTime":"2022-12-23T15:00:00:Z","depth":0,"parameterNumber":2,"parameterNumberName":"U-component_of_WINDS"},"data":[0,0,0,0,0,0,0,0,0,0,0,0,0,0,0,0,0,0,0,0,0,0,0,0,0,0,0,0,0,0,0,0,0,0,0,0,0,0,0,0,0,0,0,0,0,0,0,0,0,0,0,0,0,0,0,0,0,0,1.2156,1.2155,0,1.2121,1.2121,1.212,1.2101,1.2101,1.2101,1.2101,1.2063,1.2062,1.2061,0,0,0,0,0,0,0,0,0,0,0,0,0,1.2204,1.2203,1.2156,1.2155,1.2155,1.2121,1.2121,1.212,1.2101,1.2101,1.2101,1.2101,1.2063,1.2062,1.2061,0,0,0,0,0,0,0,0,0,0,0,0,0,1.2177,1.2203,1.2156,1.2141,1.214,1.2121,1.2121,1.212,1.2101,1.2101,1.2101,1.2101,1.2063,1.2062,1.206,1.2052,0,0,1.2056,1.2055,0,0,0,0,0,0,0,0,1.2179,1.2175,1.2144,1.2142,1.2141,1.2116,1.2123,1.2097,1.2101,1.2116,1.2101,1.2101,1.208,1.2077,1.2071,1.2051,1.2049,1.2056,1.2055,1.2054,1.2054,0,0,0,0,0,0,0,1.2181,1.2177,1.2142,1.2144,1.2141,1.2136,1.2132,1.2118,1.2099,1.2115,1.2113,1.2109,1.2079,1.2072,1.207,1.2048,1.2056,1.2054,1.2054,1.2053,1.2021,1.2021,0,0,0,0,0,0,1.2185,1.2178,1.2143,1.2141,1.216,1.2135,1.2131,1.2124,1.2099,1.2095,1.211,1.2109,1.2075,1.2071,1.2068,1.2058,1.2054,1.2053,1.2052,1.2021,1.2021,1.2021,0,0,0,0,0,0,1.2186,1.2182,1.2144,1.2159,1.2154,1.2135,1.2126,1.2123,1.2116,1.2095,1.2091,1.2106,1.2075,1.207,1.2057,1.2056,1.2052,1.2051,1.2021,1.2021,1.2021,1.2036,0,0,0,0,0,0,1.2188,1.2183,1.218,1.2159,1.2153,1.2134,1.2126,1.2122,1.2114,1.2112,1.2091,1.2087,1.2074,1.2059,1.2055,1.2054,1.205,1.2021,1.2021,1.2021,1.2036,1.2037,1.2038,0,0,0,0,0,1.2189,1.2185,1.218,1.2175,1.215,1.2134,1.2131,1.2117,1.2114,1.2111,1.2097,1.2088,1.2057,1.2058,1.2054,1.2052,1.2021,1.2021,1.2021,1.2035,1.2037,1.2038,0,0,0,0,0,0,1.2204,1.2182,1.2176,1.2164,1.2152,1.2131,1.2126,1.2119,1.2105,1.2104,1.2087,1.2082,1.207,1.206,1.2061,1.2043,1.2038,1.2037,1.205,1.2051,1.2052,1.2055,1.2048,0,0,0,0,0,1.2206,1.2196,1.2177,1.2169,1.2163,1.2146,1.2139,1.2129,1.2115,1.2109,1.2094,1.208,1.2067,1.2059,1.2046,1.2035,1.2029,1.2031,1.2032,1.2033,1.2032,1.2026,1.2027,1.2021,1.2021,1.2021,0,0,1.2209,1.2196,1.2191,1.2171,1.216,1.215,1.2141,1.213,1.2123,1.2107,1.2094,1.2083,1.2065,1.2053,1.2047,1.2044,1.2033,1.2033,1.2034,1.2033,1.2026,1.2027,1.2027,1.2021,1.2021,1.2021,0,0,1.2211,1.22,1.2192,1.2182,1.2166,1.2155,1.2153,1.2134,1.2127,1.2114,1.2102,1.2092,1.207,1.2059,1.205,1.2049,1.204,1.2045,1.205,1.2044,1.2045,1.2045,1.2044,1.2045,1.2045,1.2045,1.2045,0,1.2217,1.2202,1.2189,1.218,1.2171,1.2158,1.215,1.214,1.212,1.2115,1.2112,1.2085,1.2072,1.2058,1.2058,1.2051,1.2048,1.2047,1.2046,1.2046,1.2046,1.2045,1.2045,1.2045,1.2045,1.2045,1.2045,0,1.2211,1.22,1.2196,1.2179,1.217,1.2161,1.2146,1.2139,1.2131,1.212,1.2107,1.2092,1.2076,1.2072,1.2063,1.2056,1.2055,1.2049,1.2044,1.2047,1.2047,1.2046,1.2046,1.2046,1.2046,1.2046,0,0,1.2219,1.2196,1.2194,1.2187,1.2169,1.216,1.2151,1.2137,1.2131,1.2118,1.2109,1.2092,1.2087,1.2077,1.2067,1.2062,1.2063,1.2057,1.2056,1.2058,1.2054,1.2058,1.2058,1.2057,1.2057,1.2057,1.2056,0,1.2217,1.2201,1.219,1.2178,1.2168,1.2156,1.2148,1.2136,1.2126,1.2116,1.2105,1.2093,1.2088,1.2082,1.2076,1.2064,1.2061,1.2064,1.2048,1.2048,1.2052,1.2058,1.2062,1.2061,1.2055,1.2055,1.2055,0,1.2213,1.2202,1.219,1.2174,1.2169,1.2162,1.2149,1.214,1.2126,1.2119,1.2109,1.2099,1.2089,1.2085,1.207,1.2072,1.2065,1.2058,1.2058,1.2055,1.2051,1.2055,1.2061,1.2061,1.2054,1.2054,1.2054,0,1.222,1.2202,1.2193,1.2186,1.2168,1.2163,1.2155,1.2141,1.2134,1.2122,1.2116,1.2103,1.2096,1.2085,1.2072,1.2071,1.2059,1.2054,1.2052,1.2053,1.2049,1.2049,1.2054,1.2046,1.2046,1.2046,1.2046,0,1.222,1.2212,1.2196,1.219,1.2181,1.2168,1.216,1.2151,1.2139,1.2131,1.2119,1.2112,1.2095,1.2085,1.2075,1.2064,1.2061,1.2055,1.2052,1.2055,1.2056,1.205,1.2049,1.2046,1.2046,1.2046,1.2046,0,1.2226,1.2214,1.2203,1.2187,1.2183,1.2177,1.2163,1.2156,1.2147,1.2136,1.2133,1.2118,1.2105,1.2092,1.2075,1.2068,1.2058,1.2054,1.2063,1.2061,1.206,1.2061,1.206,1.2059,1.2053,1.2053,1.2053,0,1.2226,1.222,1.2204,1.2198,1.2191,1.2181,1.2174,1.2161,1.2154,1.2139,1.2134,1.2122,1.2111,1.2092,1.2079,1.2066,1.2061,1.2062,1.2059,1.2063,1.2061,1.2061,1.2061,1.2063,1.2063,1.2063,1.2063,0,1.2227,1.2222,1.2213,1.2201,1.2193,1.2184,1.2173,1.2169,1.2154,1.2147,1.2135,1.2127,1.2111,1.2098,1.2084,1.2075,1.2066,1.2065,1.2064,1.2066,1.2072,1.2069,1.2065,1.2064,1.2064,1.2064,1.2064,1.2064,1.223,1.2225,1.2213,1.2203,1.2194,1.2185,1.2178,1.2169,1.2159,1.2145,1.2139,1.2127,1.2114,1.2094,1.2086,1.2076,1.2073,1.2072,1.2071,1.2071,1.2072,1.2074,1.2073,1.2073,1.2073,1.2073,1.2073,0,1.223,1.2223,1.2214,1.22,1.2193,1.2187,1.2176,1.2169,1.216,1.2149,1.2139,1.2126,1.2114,1.2101,1.2088,1.2083,1.2079,1.208,1.208,1.2078,1.2075,1.2077,1.2083,1.2083,1.2083,1.2083,1.2083,1.2083,1.223,1.2221,1.2214,1.2201,1.2193,1.2182,1.2177,1.2168,1.216,1.2146,1.2136,1.2128,1.2116,1.2103,1.2092,1.2088,1.2084,1.2086,1.2081,1.2079,1.2078,1.2077,1.2079,1.2085,1.2085,1.2085,1.2085,1.2085]},{"header":{"parameterUnit":"m.s-1","parameterCategory":1,"la1":30.2991,"la2":30.254,"lo1":-89.0895,"lo2":-89.0444,"dx":0.0017,"dy":0.0017,"nx":28,"ny":28,"refTime":"2022-12-23T15:00:00:Z","depth":0,"parameterNumber":3,"parameterNumberName":"V-component_of_WINDS"},"data":[0,0,0,0,0,0,0,0,0,0,0,0,0,0,0,0,0,0,0,0,0,0,0,0,0,0,0,0,0,0,0,0,0,0,0,0,0,0,0,0,0,0,0,0,0,0,0,0,0,0,0,0,0,0,0,0,0,0,-7.0818,-7.082,0,-7.096,-7.0962,-7.0963,-7.093,-7.0928,-7.0925,-7.0923,-7.1061,-7.1067,-7.1073,0,0,0,0,0,0,0,0,0,0,0,0,0,-7.0514,-7.052,-7.0818,-7.082,-7.0822,-7.096,-7.0962,-7.0964,-7.0931,-7.0928,-7.0924,-7.0921,-7.1059,-7.1067,-7.1074,0,0,0,0,0,0,0,0,0,0,0,0,0,-7.065,-7.0522,-7.0818,-7.0822,-7.0824,-7.0959,-7.0962,-7.0964,-7.0932,-7.0928,-7.0924,-7.092,-7.1057,-7.1066,-7.1075,-7.1213,0,0,-7.1103,-7.1107,0,0,0,0,0,0,0,0,-7.0642,-7.0661,-7.082,-7.0822,-7.0825,-7.0924,-7.0905,-7.1047,-7.0933,-7.0891,-7.0922,-7.0918,-7.1018,-7.103,-7.1066,-7.1219,-7.1225,-7.1104,-7.111,-7.1114,-7.1116,0,0,0,0,0,0,0,-7.0633,-7.0655,-7.0874,-7.0822,-7.0825,-7.0815,-7.083,-7.0932,-7.0975,-7.0894,-7.0892,-7.091,-7.1019,-7.1057,-7.1069,-7.1227,-7.1104,-7.1112,-7.1118,-7.1122,-7.1502,-7.1506,0,0,0,0,0,0,-7.0622,-7.0647,-7.087,-7.0878,-7.0722,-7.0824,-7.0841,-7.0896,-7.0974,-7.0982,-7.0913,-7.0907,-7.1043,-7.1058,-7.1073,-7.1241,-7.1114,-7.1122,-7.1128,-7.1497,-7.1503,-7.1507,0,0,0,0,0,0,-7.0616,-7.0643,-7.0864,-7.0763,-7.079,-7.0834,-7.0896,-7.0901,-7.0939,-7.0988,-7.0995,-7.0944,-7.104,-7.106,-7.1179,-7.1245,-7.1127,-7.1135,-7.1492,-7.1499,-7.1505,-7.1576,0,0,0,0,0,0,-7.0608,-7.0641,-7.0694,-7.0764,-7.0796,-7.0969,-7.09,-7.0906,-7.0956,-7.095,-7.102,-7.1027,-7.1039,-7.1165,-7.1188,-7.1256,-7.1142,-7.1486,-7.1495,-7.1503,-7.1568,-7.1584,-7.1598,0,0,0,0,0,-7.0597,-7.0707,-7.0697,-7.0724,-7.0864,-7.0973,-7.0991,-7.1004,-7.0961,-7.1015,-7.1047,-7.1025,-7.1234,-7.1178,-7.1203,-7.1274,-7.1482,-7.1492,-7.1502,-7.1561,-7.1581,-7.1598,0,0,0,0,0,0,-7.0641,-7.0716,-7.0706,-7.0843,-7.0902,-7.0967,-7.1035,-7.1024,-7.1095,-7.1087,-7.1098,-7.1114,-7.1235,-7.1266,-7.1202,-7.1412,-7.1352,-7.1367,-7.1387,-7.1407,-7.1422,-7.1412,-7.115,0,0,0,0,0,-7.0668,-7.0752,-7.0811,-7.0926,-7.0957,-7.0991,-7.1039,-7.1044,-7.1105,-7.1129,-7.117,-7.1228,-7.1307,-7.1358,-7.1434,-7.1572,-7.1587,-7.1634,-7.1649,-7.1661,-7.1674,-7.1751,-7.1772,-7.1541,-7.1541,-7.1541,0,0,-7.0722,-7.0773,-7.0825,-7.0936,-7.0983,-7.1068,-7.1012,-7.1104,-7.1168,-7.1142,-7.1258,-7.129,-7.1355,-7.1485,-7.1544,-7.1515,-7.1742,-7.1674,-7.1683,-7.169,-7.1763,-7.1785,-7.1805,-7.1548,-7.1547,-7.1545,0,0,-7.0864,-7.0912,-7.1013,-7.1061,-7.1134,-7.1156,-7.1181,-7.1248,-7.1269,-7.1386,-7.1369,-7.1443,-7.1579,-7.1627,-7.1669,-7.1831,-7.1814,-7.1855,-7.1935,-7.2009,-7.2027,-7.2043,-7.2101,-7.2122,-7.1868,-7.1869,-7.1869,0,-7.0922,-7.1052,-7.1066,-7.1161,-7.121,-7.1194,-7.1296,-7.1342,-7.1434,-7.1468,-7.1434,-7.1606,-7.1648,-7.1789,-7.1829,-7.1864,-7.1891,-7.1847,-7.2023,-7.204,-7.2055,-7.2111,-7.2133,-7.1873,-7.1873,-7.1872,-7.1872,0,-7.1119,-7.1209,-7.1282,-7.1375,-7.1432,-7.153,-7.1558,-7.1614,-7.1615,-7.164,-7.1759,-7.181,-7.1896,-7.193,-7.193,-7.2071,-7.2051,-7.2021,-7.196,-7.2082,-7.2134,-7.2156,-7.188,-7.1878,-7.1877,-7.1876,0,0,-7.1293,-7.1394,-7.142,-7.1463,-7.1542,-7.1611,-7.1708,-7.1794,-7.1842,-7.1906,-7.1988,-7.2104,-7.2077,-7.2124,-7.213,-7.2195,-7.2321,-7.2156,-7.2158,-7.2185,-7.248,-7.2503,-7.2528,-7.231,-7.2314,-7.2317,-7.2475,0,-7.1443,-7.1616,-7.1633,-7.1787,-7.1871,-7.1857,-7.1942,-7.1999,-7.2025,-7.2099,-7.2127,-7.221,-7.2167,-7.2196,-7.226,-7.2292,-7.238,-7.2281,-7.2384,-7.2388,-7.2369,-7.2555,-7.2579,-7.2725,-7.2495,-7.2499,-7.2501,0,-7.1641,-7.1714,-7.1878,-7.1947,-7.1983,-7.2059,-7.214,-7.2211,-7.2275,-7.2289,-7.2344,-7.2341,-7.2439,-7.2376,-7.2511,-7.2443,-7.2486,-7.2508,-7.2514,-7.2524,-7.2452,-7.257,-7.2772,-7.2794,-7.2534,-7.2531,-7.2529,0,-7.1752,-7.1891,-7.2008,-7.2044,-7.2127,-7.2181,-7.2218,-7.2278,-7.233,-7.24,-7.2433,-7.2513,-7.2557,-7.2618,-7.2636,-7.2588,-7.2771,-7.2708,-7.2785,-7.2785,-7.2824,-7.2821,-7.3036,-7.2852,-7.2851,-7.2851,-7.285,0,-7.1918,-7.2019,-7.2059,-7.2131,-7.2244,-7.2261,-7.2371,-7.2404,-7.2458,-7.2535,-7.2527,-7.2599,-7.2619,-7.2694,-7.2708,-7.2818,-7.2838,-7.2852,-7.2854,-7.2853,-7.2851,-7.2881,-7.2872,-7.2857,-7.2855,-7.2854,-7.2853,0,-7.2061,-7.2092,-7.2219,-7.2288,-7.2308,-7.2388,-7.2446,-7.2514,-7.254,-7.2638,-7.2661,-7.2702,-7.279,-7.2814,-7.2919,-7.2929,-7.3059,-7.3051,-7.3038,-7.3038,-7.3114,-7.3106,-7.3355,-7.3389,-7.3182,-7.3184,-7.3186,0,-7.2165,-7.2243,-7.2322,-7.2374,-7.2414,-7.2498,-7.2551,-7.257,-7.2626,-7.2706,-7.2764,-7.2852,-7.2923,-7.3064,-7.3102,-7.3182,-7.3177,-7.3258,-7.3188,-7.3185,-7.3178,-7.3174,-7.3182,-7.3271,-7.3274,-7.3275,-7.3277,0,-7.2347,-7.2359,-7.2437,-7.2522,-7.2587,-7.2653,-7.2717,-7.276,-7.2788,-7.285,-7.2942,-7.2998,-7.3106,-7.3193,-7.3275,-7.331,-7.3299,-7.3299,-7.3321,-7.332,-7.331,-7.3317,-7.3074,-7.3293,-7.3291,-7.329,-7.3289,-7.3289,-7.2474,-7.2543,-7.261,-7.2698,-7.2749,-7.2809,-7.2877,-7.2913,-7.2991,-7.3082,-7.3088,-7.3188,-7.325,-7.3359,-7.3399,-7.3476,-7.3451,-7.3483,-7.3491,-7.3499,-7.3506,-7.3298,-7.349,-7.349,-7.3489,-7.3489,-7.3489,0,-7.2656,-7.2699,-7.2779,-7.2871,-7.294,-7.2925,-7.2996,-7.3054,-7.3142,-7.3202,-7.3273,-7.3379,-7.3463,-7.3508,-7.3592,-7.3645,-7.3641,-7.3666,-7.3662,-7.3671,-7.3522,-7.3495,-7.3667,-7.3667,-7.3667,-7.3667,-7.3667,-7.3667,-7.2759,-7.2875,-7.2895,-7.3037,-7.3078,-7.3178,-7.3219,-7.3275,-7.3323,-7.3442,-7.3513,-7.3543,-7.3597,-7.3685,-7.3761,-7.3772,-7.3803,-7.3831,-7.3839,-7.3699,-7.3681,-7.3664,-7.3638,-7.3838,-7.3838,-7.3981,-7.3982,-7.3983]}]]